User: anonymous   Login
Location: Unspecified
(0.0000°N, 0.0000°E)
Time: 11:51:03
(UTC+00:00)
Language:

SAR-Lupe-5 - Orbit

View from above orbital plane
View from above orbital plane
View from above satellite
View from above satellite

Ground track
Ground track

The orbit data is extracted from the following two-line orbital elements,

1 33244U 08036A   17084.11626247 0.00000000  00000-0  00000-0 0    05
2 33244  98.1232 254.7300 0002000  40.5832 319.4166 15.27685865    01
Epoch (UTC): 25 March 2017 02:47:25
Eccentricity: 0.0002000
inclination: 98.1232°
perigee height: 481 km
apogee height: 484 km
right ascension of ascending node: 254.7300°
argument of perigee: 40.5832°
revolutions per day: 15.27685865
mean anomaly at epoch: 319.4166°
orbit number at epoch: 0

The dashed part of the orbit path shows where the satellite is in the earth's shadow,  

DLR